Find Starlink 11474

NORAD ID: 62065 Int'l Des: 2024-217 Owner: SPXS Country: US Constellation: starlink operational
LEOCIRCULAR

Live Position

Loading 3D Globe...

About Starlink 11474

Description loading...

Upcoming Passes

Passes for default location (London). Set your location on the main map for personalized predictions.

Altitude History

Loading altitude history...

Two-Line Element Set

1 62065U 24217J 26123.48194964 .00131257 00000-0 10696-2 0 9997
2 62065 53.1561 160.8285 0001842 55.8204 304.2988 15.69746285 83784
Epoch: May 3, 2026 • Age: 4 hours

Current Status

Altitude 365.3 km
Velocity 7.69 km/s
Sub-Earth Point -21.26°S, 40.94°E
Launch Date Nov 24, 2024
Age 1.4 years
Type internet

Technical Details

Classification Payload
Mass 960.00 kg
Dry Mass 910.00 kg
Total Mass 960.00 kg
Length 0.30 m
Diameter 4.10 m
Span 29.00 m
Shape Box + pan
Manufacturer SPXS
Bus Type Starlink V2MD
Phase Status In Orbit
Owner/State SPXS/US

Most Searched